Powrót do katalogu

HULIANWANG DIGUI-180

AktywnyNaukaLEO
NORAD 100205·PAYLOAD·🇨🇳 China

Wystrzelony Aug 4, 2026 z Wenchang Space Launch Site

Loading…

Następne Przeloty (najbliższe 24 godziny)

TLE

ŚwieżeSource: Space-Track

Epoka: Sep 14, 2026, 21:56 UTC

1 A0205U 26176C   26257.91434091 -.00000089  00000-0  75779-4 0  9999
2 A0205  49.9882 244.1299 0000236   0.9043 359.1829 13.29327106  5553

Śledź HULIANWANG DIGUI-180 w czasie rzeczywistym z AllMySat

Download on the App Store